Tracking 23610 objects as of 20-Sep-2021
HD Live streaming from Space Station
objects crossing your sky now

STARLINK-2581

Track STARLINK-2581 now!
10-day predictions
STARLINK-2581 is classified as:


NORAD ID: 48412
Int'l Code: 2021-038BM
Perigee: 354.1 km
Apogee: 360.1 km
Inclination: 53.0 °
Period: 91.5 minutes
Semi major axis: 6728 km
RCS: Unknown
Launch date: May 4, 2021
Source: United States (US)
Launch site: AIR FORCE EASTERN TEST RANGE (AFETR)
aabbcc
Your satellite tracking list
Your tracking list is empty




NASA's NSSDC Master Catalog

Two Line Element Set (TLE):
1 48412U 21038BM  21262.91667824  .00079741  00000-0  56838-3 0  9990
2 48412  53.0474  77.7107 0004449 359.1518  92.3760 15.73137260  3696
Source of the keplerian elements: AFSPC